Location: Newark
(46.2031°N, 3.4731°E)
Time: 23:03:06
(UTC+00:00)

Envisat - Pass Details

Date: 25 September 2019
Orbit: 764 x 766 km, 98.1° (Epoch: 21 October)

Event Time Altitude Azimuth Distance (km) Brightness Sun altitude
Rises 17:57:08 0° 170° (S) 3,220 6.1 -4.0°
Reaches altitude 10° 17:59:26 10° 172° (S) 2,298 5.4 -4.4°
Maximum altitude 18:04:29 73° 257° (WSW) 803 3.4 -5.3°
Drops below altitude 10° 18:09:35 10° 343° (NNW) 2,314 5.8 -6.2°
Sets 18:11:55 0° 345° (NNW) 3,244 6.5 -6.6°
